星链-31136 (STARLINK-31136 )

导读

STARLINK-31136是美国太空探索技术公司(SpaceX)星链星座的成员,于2024年1月14日发射入轨。星链项目旨在搭建全球卫星互联网星座,为全球范围提供低延迟、高速率的网络接入服务,该卫星入轨后,将进一步扩充星链星座的在轨规模,提升全球网络覆盖能力。

基本信息
目录编号:
58772
目录名称:
STARLINK-31136
国际标识:
2024-011H
轨道中心:
EARTH
卫星名称:
星链-31136
卫星全名:
星链-31136 (STARLINK-31136 )
卫星状态:
在轨 (已飞行964 天)
发射日期:
2024-01-14 UTC
国别 :
美国 (US)
星等 :
--
轨道信息
数据来源 国际轨道数据
星历时间: 2026-09-04T08:59:21+0800
10小时前
查看轨道信息
半长轴: 6840.884km
偏心率: 0.0001031
轨道倾角: 53.160°
近地点辐角 79.941°
升交点赤经 262.630°
平近点角 280.171°
近地点: 462.041km
远地点: 463.453km
周期: 93.849分钟
每日圈数: 15.343855
详细信息
固有亮度:
5
最大亮度:
0.3
卫星平台:
Starlink v2.0 mini
覆盖范围:
全球
运营商:
太空探索技术公司
运营商所在国:
美国
制造商(研发单位):
太空探索技术公司
制造商所在国:
美国
使用方式:
暂无
卫星简介
星链(Starlink)计划是由太空探索技术公司(SpaceX)提出的一个巨型低轨卫星互联网星座项目,计划在2019年至2024年间在太空搭建由约1.2万颗卫星组成的“星链”网络,其中1584颗将部署在地球上空550千米处的近地轨道,并从2020年开始工作。该卫星仍在工作。
2D轨道图
3D轨道图
轨道高度分析图
轨道倾角分析图
轨道综合分析图
查看轨道综合分析图
交会数据列表
事件ID 空间交会对象 最接近时刻(TCA) 交会距离 交会风险概率(CRP) 交会风险指数(CRI) 操作
CDM_260906-110705-877206-918321
2026-09-06T
11:07:07+0000
0.779 km
远距离
3.761226E-5 中风险 0.67
CDM_260906-032301-298705-877221
2026-09-06T
03:23:13+0000
1.660 km
极远距离
3.766183E-6 低风险 0.47
CDM_260906-124005-877206-918321
2026-09-06T
12:40:54+0000
1.798 km
极远距离
2.397959E-6 低风险 0.43
CDM_260906-134605-228305-877221
2026-09-06T
13:46:11+0000
2.571 km
极远距离
1.380382E-6 低风险 0.38
CDM_260906-103205-248905-877221
2026-09-06T
10:32:02+0000
2.544 km
极远距离
1.085009E-6 低风险 0.36
CDM_260902-110405-405505-877223
2026-09-02T
11:04:08+0000
2.703 km
极远距离
3.740341E-7 极低风险 0.26